NOAA 16 DEB, 41233

Orbit data source: Space-Track

NOAA 16 DEB, 41233 is space debris in SSO originally from a launch on Thu, 21 Sep 2000 UTC launched from the Air Force Western Test Range (AFWTR). Debris objects in space refer to the collection of defunct objects orbiting the Earth. Examples of debris include non-operational satellites, rocket bodies, and fragments generated from explosions, collisions, or faulty payload assembly.

Loading next visibility...
Identifier
41233, 2000-055EN
Orbit
SSO
Country
Flag of USUS
Related business
Manufacturer
Unknown
Mission
Spacecraft
Bus & Motor
Unknown
Mass
Unknown
Launch date (UTC)
2000-09-21 (26 years ago)
Launch vehicle
Unknown
Launch site
Air Force Western Test Range (AFWTR)
Object type
Payload
Rocket body
Debris
Shape & HBR
Unknown shape, 0.1 m
Radar Cross Section
Medium (>0.1 m² and <1 m²)

Expand to show TLE details & history
Last TLE update: 2 days ago

TLE from 2 days ago
0 NOAA 16 DEB
1 41233U 00055EN  26254.04780725  .00001787  00000-0  82763-3 0  9997
2 41233  98.6886 290.7982 0036760 249.5004 110.2227 14.21693850553358
Epoch: 2026-09-11T01:08Z
TLE epoch observation values (Epoch: 2026-09-11T01:08:50.546Z)
Latitude
0.00006°
Longitude
-76.48918°
Altitude
831.781 km
Speed
7.432 km/s
True Right ascension
19h 23m 11s
True Declination
0° 00' 00"
Sunlit
Object was in full shadow at epoch
Visualization orbit readout
Latitude
Unknown
Longitude
Unknown
Altitude
Unknown
Speed
Unknown
Apparent Right ascension
Unknown
Apparent Declination
Unknown
Sunlit
N/A
Visualization observer readout
Local Sidereal Time
09:05:58
Azimuth
Unknown
Elevation
Unknown
Doppler factor
Unknown
Orbital elements
Apogee altitude
843.234 km
Perigee altitude
790.337 km
Semi-major axis
7,194.922 km
Eccentricity
0.00368
Inclination
98.6886°
RAAN
290.7982°
Arg. of periapsis
249.5004°
True anomaly
110.61734°
Mean anomaly
110.2227°
Eccentric anomaly
110.42008°
Mean motion
3.55635 °/min
Orbital period
101.23 mins
BSTAR
0.00082763
Loading maneuver chart data...
Computing Atmospheric mass density...
Loading historical data...
Loading historical data...
Loading historical data...
Loading historical data...
Loading historical data...
Loading historical data...
Loading historical data...

Documentation

Showing up to 5 results
|